Location: Lane
(33.5226°N, 79.8788°W)
Time: 18:04:50
(UTC+00:00)

Courier 1B - Pass Details

Date: 06 October 2022
Orbit: 962 x 1209 km, 28.3° (Epoch: 27 November)

Event Time Altitude Azimuth Distance (km) Brightness Sun altitude
Rises 23:13:53 0° 269° (W) 3,893 13.7 -4.3°
Reaches altitude 10° 23:17:12 10° 257° (WSW) 2,889 11.8 -5.0°
Maximum altitude 23:22:44 25° 205° (SSW) 1,930 9.4 -6.1°
Drops below altitude 10° 23:28:02 10° 152° (SSE) 2,752 9.6 -7.3°
Sets 23:31:07 0° 139° (SE) 3,671 10.1 -7.9°
